When you browse on this site, cookies collect data to enhance your experience and personalize the content and advertising you see.
Visit our Privacy Policy to learn more. By continuing to use the site, you agree to this use of cookies and data.
  • In Romania
  • List of Countries
  • For 7 days
  • Water Temperature
  • Weather Map
  • Weather Widgets
  • user-avatar
    Login

    Hourly Weather Rio Branco

    Today, 23 February, Sunday

    Time Temperature Precipitation Wind Pressure Humidity
    00:00 +22°C° 0 mm 1 mps 747 mmHg 90%
    01:00 +22°C° 0 mm 1 mps 746 mmHg 89%
    02:00 +22°C° 0 mm 1 mps 746 mmHg 89%
    03:00 +22°C° 0 mm 1 mps 746 mmHg 89%
    04:00 +21°C° 0 mm 1 mps 746 mmHg 89%
    05:00 +22°C° 0 mm 1 mps 746 mmHg 87%
    06:00 +22°C° 0 mm 1 mps 747 mmHg 85%
    07:00 +21°C° 0 mm 2 mps 748 mmHg 84%
    08:00 +24°C° 0 mm 2 mps 748 mmHg 78%
    09:00 +26°C° 0 mm 2 mps 748 mmHg 73%
    10:00 +27°C° 0 mm 2 mps 748 mmHg 68%
    11:00 +28°C° 0 mm 2 mps 747 mmHg 66%
    12:00 +29°C° 0 mm 2 mps 747 mmHg 63%
    13:00 +30°C° 0 mm 1 mps 746 mmHg 61%
    14:00 +30°C° 0 mm 1 mps 745 mmHg 64%
    15:00 +29°C° 0 mm 1 mps 744 mmHg 67%
    16:00 +29°C° 0 mm 1 mps 743 mmHg 70%
    17:00 +27°C° 0 mm 1 mps 743 mmHg 75%
    18:00 +26°C° 0 mm 1 mps 744 mmHg 80%
    19:00 +25°C° 0 mm 1 mps 744 mmHg 85%
    20:00 +25°C° 0 mm 1 mps 745 mmHg 84%
    21:00 +25°C° 0 mm 1 mps 745 mmHg 84%
    22:00 +25°C° 0 mm 1 mps 746 mmHg 83%
    23:00 +24°C° 0 mm 1 mps 746 mmHg 86%

    Tomorrow, 24 February, Monday

    Time Temperature Precipitation Wind Pressure Humidity
    00:00 +24°C° 0 mm 1 mps 746 mmHg 88%
    01:00 +23°C° 0 mm 1 mps 745 mmHg 91%
    02:00 +21°C° 0 mm 0 mps 745 mmHg 92%
    03:00 +21°C° 0 mm 0 mps 745 mmHg 92%
    04:00 +20°C° 0 mm 0 mps 744 mmHg 93%
    05:00 +21°C° 0 mm 0 mps 745 mmHg 90%
    06:00 +24°C° 0 mm 1 mps 745 mmHg 87%
    07:00 +24°C° 0 mm 1 mps 746 mmHg 84%
    08:00 +25°C° 0 mm 0 mps 746 mmHg 77%
    09:00 +28°C° 0 mm 0 mps 746 mmHg 70%
    10:00 +30°C° 0 mm 0 mps 746 mmHg 62%
    11:00 +31°C° 0 mm 0 mps 745 mmHg 61%
    12:00 +33°C° 0 mm 1 mps 744 mmHg 60%
    13:00 +33°C° 0 mm 1 mps 743 mmHg 59%
    14:00 +33°C° 0 mm 1 mps 742 mmHg 62%
    15:00 +33°C° 0 mm 1 mps 741 mmHg 65%
    16:00 +32°C° 0 mm 1 mps 740 mmHg 68%
    17:00 +29°C° 0.1 mm 0 mps 741 mmHg 73%
    18:00 +27°C° 0.1 mm 0 mps 741 mmHg 78%
    19:00 +25°C° 0.1 mm 0 mps 742 mmHg 84%
    20:00 +25°C° 1.3 mm 0 mps 743 mmHg 88%
    21:00 +26°C° 1.3 mm 1 mps 743 mmHg 92%
    22:00 +26°C° 1.3 mm 1 mps 744 mmHg 96%
    23:00 +25°C° 0.8 mm 1 mps 744 mmHg 96%

    Day after tomorrow, 25 February, Tuesday

    Time Temperature Precipitation Wind Pressure Humidity
    00:00 +25°C° 0.8 mm 1 mps 744 mmHg 97%
    01:00 +25°C° 0.8 mm 1 mps 744 mmHg 97%
    02:00 +25°C° 0 mm 1 mps 744 mmHg 97%
    03:00 +23°C° 0 mm 0 mps 743 mmHg 97%
    04:00 +23°C° 0 mm 0 mps 743 mmHg 97%
    05:00 +25°C° 0 mm 1 mps 744 mmHg 97%
    06:00 +26°C° 0 mm 1 mps 744 mmHg 96%
    07:00 +26°C° 0 mm 1 mps 745 mmHg 95%
    08:00 +28°C° 0.3 mm 1 mps 745 mmHg 89%
    09:00 +29°C° 0.3 mm 1 mps 745 mmHg 83%
    10:00 +31°C° 0.3 mm 2 mps 745 mmHg 77%
    11:00 +32°C° 0.1 mm 2 mps 744 mmHg 71%
    12:00 +34°C° 0.1 mm 2 mps 743 mmHg 65%
    13:00 +36°C° 0.1 mm 2 mps 742 mmHg 59%
    14:00 +34°C° 1.4 mm 2 mps 742 mmHg 69%
    15:00 +32°C° 1.4 mm 2 mps 741 mmHg 79%
    16:00 +30°C° 1.4 mm 2 mps 740 mmHg 88%
    17:00 +29°C° 0.1 mm 1 mps 741 mmHg 90%
    18:00 +28°C° 0.1 mm 1 mps 741 mmHg 92%
    19:00 +27°C° 0.1 mm 1 mps 742 mmHg 94%
    20:00 +27°C° 0 mm 1 mps 743 mmHg 95%
    21:00 +27°C° 0 mm 1 mps 743 mmHg 95%
    22:00 +27°C° 0 mm 1 mps 744 mmHg 95%
    23:00 +26°C° 0.6 mm 1 mps 744 mmHg 96%

    26 February, Wednesday

    Time Temperature Precipitation Wind Pressure Humidity
    00:00 +26°C° 0.6 mm 1 mps 744 mmHg 97%
    01:00 +26°C° 0.6 mm 1 mps 743 mmHg 97%
    02:00 +26°C° 1.3 mm 1 mps 743 mmHg 97%
    03:00 +26°C° 1.3 mm 1 mps 743 mmHg 97%
    04:00 +24°C° 1.3 mm 0 mps 743 mmHg 98%
    05:00 +24°C° 0 mm 0 mps 744 mmHg 97%
    06:00 +24°C° 0 mm 0 mps 744 mmHg 96%
    07:00 +25°C° 0 mm 0 mps 745 mmHg 95%
    08:00 +26°C° 0.2 mm 0 mps 745 mmHg 91%
    09:00 +27°C° 0.2 mm 0 mps 745 mmHg 87%
    10:00 +28°C° 0.2 mm 0 mps 745 mmHg 82%
    11:00 +31°C° 1.4 mm 1 mps 745 mmHg 78%
    12:00 +33°C° 1.4 mm 1 mps 744 mmHg 73%
    13:00 +34°C° 1.4 mm 1 mps 743 mmHg 69%
    14:00 +33°C° 1.7 mm 1 mps 742 mmHg 73%
    15:00 +32°C° 1.7 mm 1 mps 742 mmHg 78%
    16:00 +32°C° 1.7 mm 1 mps 741 mmHg 83%
    17:00 +30°C° 0.7 mm 1 mps 741 mmHg 87%
    18:00 +29°C° 0.7 mm 1 mps 742 mmHg 90%
    19:00 +27°C° 0.7 mm 1 mps 743 mmHg 94%
    20:00 +27°C° 0.1 mm 1 mps 743 mmHg 95%
    21:00 +27°C° 0.1 mm 1 mps 744 mmHg 95%
    22:00 +27°C° 0.1 mm 1 mps 745 mmHg 95%
    23:00 +26°C° 0.2 mm 1 mps 744 mmHg 96%

    27 February, Thursday

    Time Temperature Precipitation Wind Pressure Humidity
    00:00 +24°C° 0.2 mm 0 mps 744 mmHg 96%
    01:00 +24°C° 0.2 mm 0 mps 743 mmHg 97%
    02:00 +24°C° 0.7 mm 0 mps 743 mmHg 97%
    03:00 +24°C° 0.7 mm 0 mps 743 mmHg 97%
    04:00 +25°C° 0.7 mm 1 mps 743 mmHg 98%
    05:00 +26°C° 0.5 mm 1 mps 744 mmHg 98%
    06:00 +26°C° 0.5 mm 1 mps 745 mmHg 97%
    07:00 +26°C° 0.5 mm 1 mps 745 mmHg 97%
    08:00 +26°C° 0.2 mm 1 mps 745 mmHg 95%
    09:00 +27°C° 0.2 mm 1 mps 745 mmHg 93%
    10:00 +26°C° 0.2 mm 0 mps 746 mmHg 91%
    11:00 +26°C° 1.1 mm 0 mps 745 mmHg 91%
    12:00 +28°C° 1.1 mm 1 mps 744 mmHg 92%
    13:00 +28°C° 1.1 mm 1 mps 744 mmHg 92%
    14:00 +28°C° 0.8 mm 1 mps 743 mmHg 92%
    15:00 +28°C° 0.8 mm 1 mps 742 mmHg 93%
    16:00 +28°C° 0.8 mm 1 mps 742 mmHg 93%
    17:00 +27°C° 0.1 mm 1 mps 742 mmHg 94%
    18:00 +26°C° 0.1 mm 1 mps 743 mmHg 96%
    19:00 +26°C° 0.1 mm 1 mps 743 mmHg 97%
    20:00 +26°C° 0.1 mm 1 mps 744 mmHg 97%
    21:00 +25°C° 0.1 mm 1 mps 744 mmHg 97%
    22:00 +25°C° 0.1 mm 1 mps 745 mmHg 97%
    23:00 +23°C° 0 mm 0 mps 745 mmHg 97%

    28 February, Friday

    Time Temperature Precipitation Wind Pressure Humidity
    00:00 +23°C° 0 mm 0 mps 745 mmHg 98%
    01:00 +23°C° 0 mm 0 mps 744 mmHg 98%
    02:00 +23°C° 0.1 mm 0 mps 744 mmHg 98%
    03:00 +23°C° 0.1 mm 0 mps 744 mmHg 98%
    04:00 +23°C° 0.1 mm 0 mps 744 mmHg 98%
    05:00 +23°C° 0 mm 0 mps 745 mmHg 98%
    06:00 +23°C° 0 mm 0 mps 745 mmHg 97%
    07:00 +24°C° 0 mm 0 mps 746 mmHg 96%
    08:00 +24°C° 0 mm 0 mps 746 mmHg 93%
    09:00 +25°C° 0 mm 0 mps 746 mmHg 90%
    10:00 +28°C° 0 mm 1 mps 746 mmHg 87%
    11:00 +28°C° 0.5 mm 1 mps 746 mmHg 87%
    12:00 +28°C° 0.5 mm 1 mps 745 mmHg 87%
    13:00 +29°C° 0.5 mm 1 mps 744 mmHg 88%
    14:00 +28°C° 0.8 mm 1 mps 744 mmHg 90%
    15:00 +28°C° 0.8 mm 1 mps 743 mmHg 93%
    16:00 +27°C° 0.8 mm 1 mps 742 mmHg 95%
    17:00 +27°C° 0 mm 1 mps 743 mmHg 96%
    18:00 +24°C° 0 mm 0 mps 743 mmHg 96%
    19:00 +24°C° 0 mm 0 mps 743 mmHg 97%
    20:00 +24°C° 0 mm 0 mps 744 mmHg 97%
    21:00 +23°C° 0 mm 0 mps 745 mmHg 97%
    22:00 +25°C° 0 mm 1 mps 746 mmHg 97%
    23:00 +25°C° 0 mm 1 mps 745 mmHg 98%
    Show more